LogoCoinalyze
    Ad-Free Version Anasayfa Piyasalar Fonlama Oranları
    Vadeli işlem verileri
    • Toplulaştırılmış veriler (Madeni Paralar)
    • Bireysel grafikler
    • Küresel grafikler
    Alarmlar
    TA
    Bitcoin Ethereum BNB Ripple Tron ZCash Dogecoin Monero UNUS SED LEO Chainlink Cardano Stellar Lumens Bitcoin Cash Litecoin Hedera Cronos Polkadot Ethereum Classic Algorand Quant Cosmos VeChain Dash Bitcoin SV BitTorrent Terra Decred Tezos Iota The Graph THETA Decentraland Chiliz NEO MultiversX Golem Basic Attention Token Horizen Qtum 0x DigiByte Beam RIF Token FTX Token Holo FUNToken Zilliqa Ontology Nano aelf Enjin Coin Ravencoin Siacoin Mask Network Verge Status WINk Waves IoTeX iExec RLC Power Ledger Steem Kyber Network Crystal Lisk Ark Ardor WOO Network IOST WAX Icon Storj Loopring Wanchain Bitcoin Diamond AdEx Bitcoin Gold Augur OmiseGO NEM MonaCoin BitShares Ren Komodo V Systems Nuls Mithril SOLVE EOS Aion Maker Nebulas HedgeTrade Bread Fetch.ai TomoChain Polygon Fantom Waltonchain GXChain Bytom Metaverse ETP MaidSafeCoin QASH
    Sırala:
    Daha
    • API
    • Mum Desenleri
    • Bağış
    • İletişim
    • Site Haritası
    • Gizlilik Politikası
    • Sorumluluk Reddi Beyanı
    • Theme:
    Türkçe
    • English
    • Français
    • Русский
    • Deutsch
    • Nederlands
    • Português (BR)
    • Español
    • 한국어
    • 简体中文
    • 日本語
     
    Giriş / Kaydol
    Markets/ Pepe/ PEPE ve CAD/ PEPECAD Kraken
    İşlemler
    WL
    Sohbet
    İstatistikler
    Haberler
    ⦷
    AAA
    0.000004678 46649891.78000000 15:57:24
    0.000004679 33409168.62577000 15:57:24
    0.000004768 80704697.98658000 15:56:51
    0.000004700 25.45451000 15:08:30
    0.000004700 3476454.94000000 15:01:44
    0.000004700 39087349.39272000 15:01:05
    0.000004678 3082614.05672000 10:51:43
    0.000004760 21411764.70588000 10:02:29
    0.000004850 379113.40296000 18:16:28
    0.000004850 5457999.99910000 18:16:28
    0.000004870 23.34984000 17:51:34
    0.000004870 2710850.27000000 17:51:17
    0.000004870 39720337.87913000 17:51:10
    0.000004861 590265145.03189003 16:54:28
    0.000004860 26897352.14000000 16:54:28
    0.000004803 2485526.92000000 16:44:09
    0.000004793 4172751.92989000 16:42:11
    0.000004832 8718760.92000000 12:59:03
    0.000004884 110000000.00000000 09:36:44
    0.000004830 171339.44672000 08:41:43
    0.000004830 2911274.61000000 08:40:24
    0.000004900 0.00489000 07:41:47
    0.000004900 1530612.24000000 07:10:42
    0.000004900 26.21326000 04:51:17
    0.000004900 63420381.95000000 04:46:50
    0.000004904 16144413.21305000 03:47:02
    0.000004905 32390988.78695000 03:47:02
    0.000004905 3691951.00000000 01:23:15
    0.000004950 339628.00000000 22:36:12
    0.000004905 367156.00000000 22:35:07
    0.000004976 826699503.64092004 17:51:58
    0.000004974 13870876.83909000 17:51:58
    0.000004973 32290082.51999000 17:51:58
    0.000004904 193016746.66806000 13:55:09
    0.000004905 32881549.43934000 13:55:09
    0.000004933 3158.23502000 09:08:43
    0.000004933 3108874.96000000 08:42:28
    0.000004754 8348617.00000000 02:10:37
    0.000004770 21492085.53999000 01:27:24
    0.000004729 21028616.16000000 00:19:30
    0.000004730 19184820.29598000 00:19:30
    0.000004707 843502.00000000 00:05:40
    0.000004790 26546972.86013000 00:05:22
    0.000004790 16.90502000 23:35:04
    0.000004790 3112016.29000000 23:35:02
    0.000004991 2516996.96445000 22:30:28
    0.000004991 2786893.64412000 22:30:28
    0.000004991 2786893.64412000 22:30:28
    0.000004991 2786893.64412000 22:30:28
    0.000004991 2786893.64412000 22:30:28
    0.000004991 2786893.64412000 22:30:28
    0.000004991 2786893.64412000 22:30:28
    0.000004991 2786893.64412000 22:30:28
    0.000004991 2786893.64412000 22:30:28
    0.000004991 2786893.64412000 22:30:28
    0.000004991 2786893.64412000 22:30:28
    0.000004991 2786893.64412000 22:30:28
    0.000004991 2786893.64412000 22:30:28
    0.000004991 2786893.64412000 22:30:28
    0.000004991 2786893.64412000 22:30:28
    0.000004991 2786893.64412000 22:30:28
    0.000004991 2786893.64412000 22:30:28
    0.000004991 2786893.64412000 22:30:28
    0.000004991 2786893.64412000 22:30:28
    0.000005000 26.98000000 22:30:24
    0.000005000 14649273.02000000 22:30:24
    0.000005000 7968700.00000000 22:30:24
    0.000005000 30000000.00000000 22:30:24
    0.000005015 2138045.36000000 21:02:56
    0.000005137 3893322.95114000 20:49:50
    0.000005110 0.00465000 20:44:53
    0.000005234 3691951.00000000 19:34:44
    0.000005211 4795624.64018000 19:30:30
    0.000005234 26557126.48070000 18:44:09
    0.000005238 282873.37475000 17:08:50
    0.000005238 2653696.71138000 16:59:49
    0.000005110 1608230.42000000 14:58:46
    0.000005110 5433098.75678000 14:58:46
    0.000005110 5433098.75678000 14:58:46
    0.000005110 5433098.75678000 14:58:46
    0.000005110 5433098.75678000 14:58:46
    0.000005110 5433098.75678000 14:58:46
    0.000005110 5433098.75678000 14:58:46
    0.000005110 5433098.75678000 14:58:46
    0.000005075 136897352.13999000 12:21:10
    0.000005083 959679.00000000 12:01:48
    0.000005081 8289993.13956000 05:44:18
    0.000005080 34454751.93999000 05:44:18
    0.000005092 6483600.00000000 03:05:38
    0.000005060 5950075.99999000 02:15:02
    0.000005113 501274.73624000 02:02:23
    0.000005085 18496625.26376000 02:02:23
    0.000005111 3913128.54627000 01:20:29
    0.000005067 9057714.95877000 18:00:50
    0.000005094 1963093.83589000 16:36:16
    0.000005100 9198623.00000000 16:04:16
    0.000005007 620132.00000000 07:56:36
    0.000005063 4965435.51254000 07:04:24
    0.000005061 9047994.46750000 06:54:03
    0.000005060 35112273.39999000 06:54:03
    Çıkış
    AAA
    Yardım
    🙂 🤣 😎 🤗 😛 😉 😜 🤑 🤔 😑 😴 😕 🙃 😲 😇 🙁 😢 😬 😟 😠 🕺 🏃 💪 ✌ 👌 👍 👎 👏 👋 🤝 🍺 🍻 🐋 🐟 🦈 🗽 🚄 ✈ 🛑 🚀 🏦 🌚 ⭐ 🌞 ⚡ 🏆 💰 💲 🔨 ❓ ❗ 💯 🔶 🏁
    ☺
    Giriş veya Kaydol ve sohbet
    24 Saat
    Değişim
    -2.40%
    Hacim
    899,911,068
    Yüksek
    0.000004870
    Düşük
    0.000004678
    7 Gün
    Değişim
    -11.75%
    Hacim
    4,575,832,780
    Yüksek
    0.000005514
    Düşük
    0.000004678
    30 Gün
    Değişim
    +14.26%
    Hacim
    43,873,307,428
    Yüksek
    0.000006461
    Düşük
    0.000003505
    Pepe price rallies 25% as whale demand and futures interest surge
    Key takeaways Pepe has gained 25% this week, including a combined 22% advance over the previous two days. Seven whale transactions worth more than $1 million each occurred Thursday, the highest...
    coinjournal.net
    Aug 21, 2026 08:41
    PEPE Supply on Exchanges Just Took a Massive Hit – What’s Next?
    A drop in PEPE exchange balances has added to bullish expectations despite muted trader interest.
    cryptopotato.com
    Aug 6, 2026 20:02
    PEPE Exchange Outflows Hit Nearly 2-Year High as Whales Accumulate
    Pepe (PEPE) recorded its largest single-day exchange outflow since November 2024, with 4.54 trillion tokens leaving trading platforms, signaling that holders are moving supply away from immediate...
    beincrypto.com
    Aug 6, 2026 04:57
    Meme Coin Based on White House Shooter Conspiracy Rallies 320%
    $HENRY surged 300% after a 2023 Pepe tweet appeared to name the White House shooter, fueling a viral time-travel meme. The post Meme Coin Based on White House Shooter Conspiracy Rallies 320%...
    beincrypto.com
    Apr 27, 2026 16:11
    PEPE surges 4% as market sentiment improves, eyes Key resistance breakout
    Key takeaways Pepe extends gains on Wednesday, stretching its rally from the 50-day EMA. Derivatives data show heightened retail activity as risk-on sentiment returns to the market. Pepe (PEPE) is...
    coinjournal.net
    Apr 22, 2026 11:44
    Why The PEPE Price Could Stage A 55X Rally To Reach New $0.0001 ATH
    The PEPE price has now started to edge back into bullish conversations after the recent inflows into the crypto market. The last time PEPE’s weekly chart printed the kind of structure now...
    newsbtc.com
    Apr 21, 2026 15:30
    Pepe (PEPE) surges 9%, drawing interest from whales
    Key takeaways PEPE is up 9% in the last 24 hours, making it one of the best performers among the top 50 cryptocurrencies by market cap. The rally comes amid renewed interest from whales and retail...
    coinjournal.net
    Apr 16, 2026 07:40
    Murad Says SPX6900 (SPX) Is Primed for a Rally — Is He Right This Time?
    Crypto influencer Murad Mahmudov claims SPX6900 (SPX) is stabilizing at the same market cap level where Dogecoin (DOGE) and Pepe (PEPE) consolidated before their explosive rallies. The...
    beincrypto.com
    Apr 5, 2026 21:36
    The Shiba Inu Of This Cycle: Analyst Shares Why It Is Better To Buy PEPE Now
    In the bull market cycle of 2021-2022, the Shiba Inu meme coin made waves in a way that changed the face of meme coins forever. This came after Dogecoin’s initial 36,000% rally, and Shiba Inu...
    newsbtc.com
    Apr 4, 2026 07:30
    PEPE Explodes by 18% Amid Altcoin Rally, BTC Tapped $74K: Market Watch
    The frog-themed meme coin is today's biggest gainer, followed by TAO, DOT, and BONK.
    cryptopotato.com
    Mar 16, 2026 10:56
    Should PEPE traders brace for volatility as short squeeze potential builds?
    The memecoin market has seen its collective market capitalization drop by 48% over the past year, and 6.9% over the past month, according to CoinMarketCap. According to Glassnode, the memecoin...
    ambcrypto.com
    Mar 7, 2026 18:00
    Komutu sohbete yazmanız yeterlidir. Takma ad1'i gerçek takma adla değiştirin.
    • /ignore nick1 Sohbet kullanıcısını engelle
    • /unignore nick1 Sohbet kullanıcısının engelini kaldır.
    • /ignorelist Engellediğiniz sohbet kullanıcılarını gösterin